Date,TemperatureHighF,TemperatureAvgF,TemperatureLowF,DewpointHighF,DewpointAvgF,DewpointLowF,HumidityHigh,HumidityAvg,HumidityLow,PressureMaxIn,PressureMinIn,WindSpeedMaxMPH,WindSpeedAvgMPH,GustSpeedMaxMPH,PrecipitationSumIn
2014-1-1,26.4,18.7,11.2,10.6,6.9,4.2,81,61,42,30.37,30.15,6,1,13,0.00
2014-1-2,17.8,9.7,-0.6,13.8,5.7,-5.3,87,83,79,30.36,29.86,6,3,13,0.00
2014-1-3,12.3,3.3,-6.1,8.4,-2.1,-13.3,85,78,66,30.38,29.72,7,3,15,0.00
2014-1-4,25.3,8.8,-12.0,15.2,-2.3,-17.7,79,62,28,30.48,30.24,8,2,12,0.03
2014-1-5,36.3,27.2,9.0,32.7,18.6,4.9,97,72,42,30.29,29.93,5,1,6,0.10
2014-1-6,55.9,43.1,27.8,55.9,41.3,16.8,100,94,63,29.93,29.24,6,3,11,0.39
2014-1-7,27.6,13.8,7.0,15.6,-4.2,-13.0,66,44,33,30.18,29.45,7,4,13,0.00
2014-1-8,20.0,12.9,6.1,4.4,-2.2,-11.1,59,51,41,30.44,30.18,6,3,14,0.00
2014-1-9,28.7,15.9,7.0,10.3,5.1,2.6,83,64,37,30.63,30.40,4,1,9,0.00
2014-1-10,32.5,22.4,5.0,31.4,19.8,1.0,97,90,83,30.59,30.26,2,0,4,0.02
2014-1-11,57.2,46.4,32.1,56.9,46.0,31.3,100,98,95,30.26,29.26,8,2,15,0.55
2014-1-12,52.3,42.6,34.4,52.3,32.4,25.3,100,68,48,29.94,29.25,7,2,13,0.04
2014-1-13,52.0,40.5,26.6,42.7,29.5,23.5,90,67,38,30.11,29.88,5,2,11,0.00
2014-1-14,48.2,45.5,41.3,45.9,43.9,41.0,99,94,84,29.88,29.60,5,1,7,0.75
2014-1-15,46.7,35.8,29.0,40.9,33.0,28.5,99,91,63,30.00,29.72,4,1,8,0.00
2014-1-16,37.5,33.6,29.3,37.2,33.2,28.6,100,99,97,29.93,29.84,1,0,4,0.01
2014-1-17,45.2,35.2,27.2,35.9,29.2,20.1,100,82,37,29.96,29.88,5,1,8,0.00
2014-1-18,34.6,31.6,27.2,33.6,30.5,25.2,98,96,92,29.91,29.61,2,0,6,0.12
2014-1-19,31.9,29.8,25.7,31.1,27.1,21.5,98,90,80,29.71,29.52,6,2,7,0.05
2014-1-20,39.1,32.0,20.6,30.1,25.3,9.3,90,76,58,29.86,29.48,6,2,9,0.23
2014-1-21,20.3,12.6,9.3,9.7,1.1,-4.9,82,61,42,30.06,29.86,4,2,9,0.00
2014-1-22,18.4,10.6,5.4,4.5,-4.2,-8.1,79,51,38,29.88,29.62,7,3,13,0.00
2014-1-23,21.8,9.7,1.5,-2.1,-6.1,-9.2,68,49,30,30.13,29.86,3,1,5,0.00
2014-1-24,17.8,7.8,-1.2,-0.5,-5.5,-8.8,80,56,31,30.23,30.04,6,2,9,0.00
2014-1-25,37.2,25.9,12.9,26.6,15.3,-2.6,85,64,45,30.03,29.30,9,4,15,0.05
2014-1-26,25.1,18.8,13.8,17.0,1.5,-9.7,74,48,29,29.87,29.30,7,3,16,0.00
2014-1-27,44.6,28.0,18.3,37.6,17.1,2.8,86,65,36,29.94,29.49,7,2,14,0.19
2014-1-28,19.7,15.6,10.4,6.7,-4.2,-11.5,57,41,28,30.29,29.94,4,2,9,0.00
2014-1-29,25.4,18.6,14.3,5.6,-1.7,-7.3,66,42,24,30.20,29.94,5,2,8,0.00
2014-1-30,29.8,18.6,7.0,10.9,3.9,-3.8,74,54,35,30.41,30.17,5,1,7,0.00
2014-1-31,40.1,30.1,18.9,24.6,18.0,9.4,83,63,34,30.17,29.99,4,1,9,0.00